Regional Weather Roundup
Issued by NWS

Home | Current Version | Previous Version | Graphics & Text | Print | Product List | Glossary On
Versions: 1 2 3 4 5 6 7 8 9 10 11 12 13 14 15 16 17 18 19 20 21 22 23 24 25 26 27 28 29 30 31 32 33 34 35 36 37 38 39 40 41 42 43 44 45 46 47 48 49 50
000
ASUS44 KMEG 260510
RWRTN
TENNESSEE HOURLY STATE WEATHER ROUNDUP
NATIONAL WEATHER SERVICE MEMPHIS TN
1100 PM CST SUN JAN 25 2015

TNZ002-004-019-021-049-052-054-088>092-260600-
WEST TENNESSEE

CITY           SKY/WX    TMP DP  RH WIND       PRES   REMARKS
MEMPHIS INTL   CLOUDY    44  35  70 NW15      29.92R
NWS MEMPHIS      N/A     43 N/A N/A MISG        N/A
JACKSON        CLOUDY    42  37  82 NW13      29.85R
DYERSBURG      CLOUDY    39  27  60 N20G26    29.91R WCI  30
UNION CITY     CLOUDY    37  37 100 NW22      29.85R WCI  27
PARIS          CLOUDY    37  36  93 NW12      29.82R WCI  30
LEXINGTON      CLOUDY    41  39  93 W12       29.80R
SAVANNAH       CLOUDY    43  37  81 NW8       29.83R
$$

TNZ008-025-027-028-033-062-065-066-260600-
NORTH MIDDLE TENNESSEE

CITY           SKY/WX    TMP DP  RH WIND       PRES   REMARKS
NASHVILLE      LGT RAIN  44  41  89 W9        29.73R
CLARKSVILLE    CLOUDY    42  39  89 NW18G26   29.77R
SMYRNA         LGT RAIN  44  41  89 NW9       29.74R
COOKEVILLE     CLOUDY    43  41  93 NW10      29.69R
CROSSVILLE     LGT RAIN  42  39  89 W8        29.66F
$$

TNZ061-075-076-078-094-096-097-260600-
SOUTH MIDDLE TENNESSEE

CITY           SKY/WX    TMP DP  RH WIND       PRES   REMARKS
FAYETTEVILLE   CLOUDY    41  39  93 MISG      29.75S
TULLAHOMA      CLOUDY    43  39  87 W13       29.73S
WINCHESTER     CLOUDY    43  39  87 W7        29.75R
MCMINNVILLE    CLOUDY    43  43 100 SW7       29.71R
COLUMBIA       CLOUDY   N/A N/A N/A VRB7      29.75R
SHELBYVILLE    CLOUDY    45  43  93 W9        29.75R
$$

TNZ017-018-042-046-047-260600-
NORTHEAST TENNESSEE

CITY           SKY/WX    TMP DP  RH WIND       PRES   REMARKS
TRI CITIES     CLOUDY    43  35  73 CALM      29.67F
ELIZABETHTON   CLOUDY    39  34  81 E5        29.68F
$$

TNZ012-013-036-069-073-074-260600-
CENTRAL EAST TENNESSEE

CITY           SKY/WX    TMP DP  RH WIND       PRES   REMARKS
KNOXVILLE      LGT RAIN  44  40  85 S10       29.69F
OAK RIDGE      MOCLDY    43  41  93 CALM      29.69F
GATLINBURG     CLOUDY    45  37  76 W6        29.69S
MORRISTOWN     CLOUDY    43  41  93 SW6       29.69R
$$

TNZ083-085-099-260600-
SOUTHEAST TENNESSEE

CITY           SKY/WX    TMP DP  RH WIND       PRES   REMARKS
CHATTANOOGA    LGT RAIN  47  43  86 CALM      29.72S
$$

SKY/WX REPORTED AS FAIR MEANS FEW OR NO CLOUDS BELOW
12 THOUSAND FEET.



USA.gov is the U.S. government's official web portal to all federal, state and local government web resources and services.